Ellensburg, WA

5:04 AM PDT on June 23, 2017 (GMT -0700)
Bowers

Weather History for KELN - January, 2013

Change the Weather History Date:

Friday, January 11, 2013

  Actual Average (KYKM) Record (KYKM)
Temperature  
Mean Temperature 24 °F -  
Max Temperature 32 °F 34 °F 59 °F (2014)
Min Temperature 14 °F 19 °F -4 °F (1949)
Degree Days  
Heating Degree Days 42    
Moisture  
Dew Point 11 °F    
Average Humidity 68    
Maximum Humidity 77    
Minimum Humidity 54    
Precipitation  
Precipitation 0.00 in - - ()
Sea Level Pressure  
Sea Level Pressure 30.21 in    
Wind  
Wind Speed 2 mph (NNE)    
Max Wind Speed 9 mph    
Max Gust Speed -    
Visibility 10 miles    
Events      
Averages and records for this station are not official NWS values.
T = Trace of Precipitation, MM = Missing Value Source: NWS Daily Summary

Daily Weather History Graph

Daily Weather History Graph

Search for Another Location

Airport or City:

Trip Planner

Search our weather history database for the weather conditions in past years. The results will help you decide how hot, cold, wet, or windy it might be!

Date:

Astronomy

Jan. 11, 2013 Rise Set
Actual Time 7:45 AM PST 4:35 PM PST
Civil Twilight 7:11 AM PST 5:09 PM PST
Nautical Twilight 6:32 AM PST 5:47 PM PST
Astronomical Twilight 5:56 AM PST 6:24 PM PST
Moon 7:19 AM PST (1/11) 5:03 PM PST (1/11)
Length of Visible Light 9h 58m
Length of Day
8h 49m
New Moon, 0% of the Moon is Illuminated
Jan 11
New Moon
Jan 18
First Quarter
Jan 26
Full
Feb 3
Last Quarter
Feb 9
New

Hourly Weather History & Observations

Time (PST) Temp. Windchill Dew Point Humidity Pressure Visibility Wind Dir Wind Speed Gust Speed Precip Events Conditions
12:53 AM 21.9 °F - 12.0 °F 66% 30.02 in 10.0 mi Calm Calm - N/A   Clear
1:53 AM 23.0 °F 13.1 °F 12.0 °F 63% 30.04 in 10.0 mi NNW 9.2 mph - N/A   Clear
2:53 AM 23.0 °F - 10.9 °F 60% 30.06 in 10.0 mi Calm Calm - N/A   Clear
3:53 AM 18.0 °F 12.7 °F 9.0 °F 68% 30.07 in 10.0 mi WSW 3.5 mph - N/A   Clear
4:53 AM 15.1 °F 7.7 °F 7.0 °F 70% 30.10 in 10.0 mi SE 4.6 mph - N/A   Clear
5:53 AM 16.0 °F - 7.0 °F 68% 30.13 in 10.0 mi Calm Calm - N/A   Clear
6:53 AM 15.1 °F 9.4 °F 7.0 °F 70% 30.16 in 10.0 mi NE 3.5 mph - N/A   Clear
7:53 AM 17.1 °F - 10.0 °F 74% 30.18 in 10.0 mi Calm Calm - N/A   Overcast
8:53 AM 19.9 °F - 12.0 °F 71% 30.22 in 10.0 mi Calm Calm - N/A   Overcast
9:53 AM 21.9 °F - 12.9 °F 68% 30.24 in 10.0 mi Calm Calm - N/A   Overcast
10:53 AM 24.1 °F - 14.0 °F 65% 30.25 in 10.0 mi Calm Calm - N/A   Overcast
12:53 PM 28.9 °F 22.8 °F 17.1 °F 61% 30.24 in 10.0 mi ENE 5.8 mph - N/A   Clear
1:53 PM 30.0 °F - 17.1 °F 59% 30.24 in 10.0 mi Calm Calm - N/A   Clear
2:53 PM 32.0 °F - 17.1 °F 54% 30.25 in 10.0 mi Calm Calm - N/A   Clear
3:53 PM 28.9 °F 23.9 °F 17.1 °F 61% 30.27 in 10.0 mi East 4.6 mph - N/A   Clear
4:53 PM 25.0 °F - 15.1 °F 66% 30.28 in 10.0 mi Calm Calm - N/A   Clear
5:53 PM 19.0 °F 13.9 °F 10.9 °F 71% 30.30 in 10.0 mi North 3.5 mph - N/A   Clear
6:53 PM 18.0 °F 12.7 °F 10.9 °F 74% 30.30 in 10.0 mi NNW 3.5 mph - N/A   Clear
7:53 PM 17.1 °F - 10.0 °F 74% 30.30 in 10.0 mi Calm Calm - N/A   Clear
8:53 PM 16.0 °F - 10.0 °F 77% 30.30 in 10.0 mi Calm Calm - N/A   Clear
9:53 PM 17.1 °F 11.7 °F 8.1 °F 68% 30.29 in 10.0 mi NE 3.5 mph - N/A   Clear
10:53 PM 17.1 °F - 10.0 °F 74% 30.29 in 10.0 mi Calm Calm - N/A   Clear
11:53 PM 14.0 °F - 7.0 °F 74% 30.30 in 10.0 mi Calm Calm - N/A   Clear